Tulcea, Romania

8:21 PM EEST on April 30, 2017 (GMT +0300)
Cataloi

Weather History for LRTC - May, 2013

Change the Weather History Date:

Thursday, May 23, 2013

  Actual Average Record
Temperature  
Mean Temperature 71 °F -  
Max Temperature 80 °F 76 °F 89 °F (2007)
Min Temperature 62 °F 57 °F 41 °F (2002)
Cooling Degree Days 6    
Growing Degree Days 21 (Base 50)    
Moisture  
Dew Point 63 °F    
Average Humidity 78    
Maximum Humidity 100    
Minimum Humidity 44    
Precipitation  
Precipitation 0.12 in - - ()
Sea Level Pressure  
Sea Level Pressure 29.55 in    
Wind  
Wind Speed 10 mph ()    
Max Wind Speed 27 mph    
Max Gust Speed 36 mph    
Visibility 5.9 miles    
Events Rain , Thunderstorm    
Averages and records for this station are not official NWS values.
T = Trace of Precipitation, MM = Missing Value Source: Averaged Metar Reports

Daily Weather History Graph

Daily Weather History Graph

Search for Another Location

Airport or City:

Trip Planner

Search our weather history database for the weather conditions in past years. The results will help you decide how hot, cold, wet, or windy it might be!

Date:

Astronomy

May. 23, 2013 Rise Set
Actual Time 5:27 AM EEST 8:36 PM EEST
Civil Twilight 4:52 AM EEST 9:11 PM EEST
Nautical Twilight 4:07 AM EEST 9:57 PM EEST
Astronomical Twilight 3:11 AM EEST 10:53 PM EEST
Moon 6:41 PM EEST (5/23) 4:04 AM EEST (5/23)
Length of Visible Light 16h 19m
Length of Day
15h 08m
Waxing Gibbous, 95% of the Moon is Illuminated
May 23
Waxing Gibbous
May 25
Full
May 31
Last Quarter
Jun 8
New
Jun 16
First Quarter

Hourly Weather History & Observations

Time (EEST) Temp. Dew Point Humidity Pressure Visibility Wind Dir Wind Speed Gust Speed Precip Events Conditions
12:00 AM 68 °F 64 °F 81% 29.73 in - South 17.9 mph - -  
12:00 AM 66.2 °F 62.6 °F 88% 29.74 in 6.2 mi SSE 9.2 mph - N/A   Unknown
1:00 AM 68 °F 64 °F 82% 29.72 in - South 17.9 mph - -  
1:00 AM 64.4 °F 62.6 °F 94% 29.71 in 6.2 mi South 4.6 mph - N/A   Unknown
2:00 AM 67 °F 64 °F 86% 29.70 in - South 15.7 mph - -  
2:00 AM 66.2 °F 62.6 °F 88% 29.68 in 6.2 mi South 4.6 mph - N/A   Unknown
3:00 AM 66 °F 64 °F 90% 29.70 in - SSE 8.9 mph - -  
3:00 AM 64.4 °F 62.6 °F 94% 29.65 in 6.2 mi SE 6.9 mph - N/A   Unknown
4:00 AM 65 °F 63 °F 92% 29.66 in - SSE 8.9 mph - -  
4:00 AM 66.2 °F 64.4 °F 94% 29.62 in 5.6 mi SE 9.2 mph - N/A   Unknown
5:00 AM 65 °F 64 °F 96% 29.63 in - East 6.7 mph - -  
5:00 AM 66.2 °F 64.4 °F 94% 29.62 in 5.6 mi SSE 4.6 mph - N/A   Unknown
6:00 AM 64 °F 63 °F 95% 29.63 in - SE 4.5 mph - -  
6:00 AM 66.2 °F 64.4 °F 94% 29.62 in 4.3 mi SE 6.9 mph - N/A   Unknown
6:30 AM 66.2 °F 66.2 °F 100% 29.62 in 6.2 mi SSE 6.9 mph - N/A   Mostly Cloudy
7:00 AM 67 °F 65 °F 89% 29.63 in - ESE 4.5 mph - -  
7:00 AM 68.0 °F 66.2 °F 94% 29.65 in 6.2 mi Variable 2.3 mph - N/A   Mostly Cloudy
7:30 AM 68.0 °F 66.2 °F 94% 29.62 in 6.2 mi South 6.9 mph - N/A Rain Light Rain Showers
8:00 AM 69 °F 65 °F 83% 29.63 in 6 mi ESE 4.5 mph - -   Clear
8:00 AM 69.8 °F 66.2 °F 88% 29.59 in 6.2 mi East 6.9 mph - N/A   Partly Cloudy
8:30 AM 73.4 °F 64.4 °F 73% 29.59 in 6.2 mi SE 11.5 mph - N/A   Scattered Clouds
9:00 AM 72 °F 67 °F 81% 29.60 in 6 mi ESE 8.9 mph - -   Scattered Clouds
9:00 AM 71.6 °F 60.8 °F 69% 29.59 in 6.2 mi SSE 11.5 mph - N/A Rain Light Rain Showers
9:30 AM 68.0 °F 62.6 °F 83% 29.62 in 6.2 mi SW 9.2 mph - N/A Rain Light Rain Showers
10:00 AM 69 °F 63 °F 76% 29.62 in 6 mi South 11.2 mph - - Rain Light Rain Showers
10:00 AM 69.8 °F 60.8 °F 73% 29.59 in 6.2 mi SSE 9.2 mph - N/A   Scattered Clouds
10:30 AM 68.0 °F 60.8 °F 78% 29.62 in 5.0 mi SSE 9.2 mph - N/A Rain , Thunderstorm Thunderstorms and Rain
11:00 AM 68 °F 63 °F 80% 29.65 in 2 mi SW 6.7 mph - - Rain Heavy Rain Showers
11:00 AM 66.2 °F 64.4 °F 94% 29.59 in 4.3 mi East 6.9 mph - N/A Rain , Thunderstorm Light Thunderstorms and Rain
11:30 AM 68.0 °F 64.4 °F 88% 29.59 in 6.2 mi ESE 6.9 mph - N/A Rain , Thunderstorm Thunderstorms and Rain
12:00 PM 67 °F 64 °F 88% 29.60 in 2 mi East 6.7 mph - - Rain , Thunderstorm Thunderstorms and Rain
12:00 PM 71.6 °F 68.0 °F 88% 29.56 in 6.2 mi East 4.6 mph - N/A   Partly Cloudy
12:30 PM 73.4 °F 66.2 °F 78% 29.56 in 6.2 mi ESE 13.8 mph - N/A   Partly Cloudy
1:00 PM 72 °F 67 °F 81% 29.58 in 6 mi ESE 8.9 mph - - Thunderstorm Light Thunderstorm
1:00 PM 73.4 °F 66.2 °F 78% 29.56 in 6.2 mi SE 18.4 mph - N/A   Partly Cloudy
1:30 PM 75.2 °F 68.0 °F 78% 29.53 in 6.2 mi ESE 18.4 mph - N/A   Partly Cloudy
2:00 PM 75 °F 66 °F 67% 29.55 in 6 mi SE 11.2 mph - -   Scattered Clouds
2:00 PM 77.0 °F 64.4 °F 65% 29.50 in 6.2 mi SE 18.4 mph - N/A   Partly Cloudy
2:30 PM 77.0 °F 64.4 °F 65% 29.47 in 6.2 mi ESE 19.6 mph - N/A   Partly Cloudy
3:00 PM 79 °F 63 °F 48% 29.50 in 6 mi SE 17.9 mph - -   Partly Cloudy
3:00 PM 77.0 °F 64.4 °F 65% 29.47 in 6.2 mi SE 19.6 mph 31.1 mph N/A   Partly Cloudy
3:30 PM 77.0 °F 64.4 °F 65% 29.47 in 6.2 mi SE 21.9 mph - N/A   Partly Cloudy
4:00 PM 79 °F 61 °F 44% 29.47 in 6 mi SSE 22.4 mph - -  
4:00 PM 77.0 °F 64.4 °F 65% 29.44 in 6.2 mi ESE 21.9 mph - N/A   Partly Cloudy
4:30 PM 77.0 °F 64.4 °F 65% 29.42 in - ESE 18.4 mph - N/A   Clear
5:00 PM 78 °F 62 °F 47% 29.43 in 6 mi SSE 26.8 mph - -  
5:00 PM 78.8 °F 60.8 °F 54% 29.42 in - SSE 21.9 mph 35.7 mph N/A   Clear
5:30 PM 78.8 °F 62.6 °F 57% 29.39 in - SE 21.9 mph 33.4 mph N/A   Clear
6:00 PM 78 °F 62 °F 47% 29.42 in 6 mi SSE 22.4 mph - -   Clear
6:00 PM 77.0 °F 60.8 °F 57% 29.39 in 6.2 mi SSE 21.9 mph - N/A   Partly Cloudy
6:30 PM 75.2 °F 60.8 °F 61% 29.39 in 6.2 mi SSE 18.4 mph - N/A   Partly Cloudy
7:00 PM 74 °F 64 °F 62% 29.40 in 6 mi SSE 17.9 mph - -   Scattered Clouds
7:00 PM 75.2 °F 60.8 °F 61% 29.42 in 6.2 mi South 19.6 mph - N/A   Partly Cloudy
7:30 PM 71.6 °F 60.8 °F 69% 29.44 in 6.2 mi West 19.6 mph - N/A   Scattered Clouds
8:00 PM 71 °F 61 °F 62% 29.46 in 6 mi West 11.2 mph - -   Partly Cloudy
8:00 PM 66.2 °F 60.8 °F 83% 29.47 in 6.2 mi West 9.2 mph - N/A   Mostly Cloudy
8:30 PM 66.2 °F 59.0 °F 78% 29.47 in 6.2 mi NNW 4.6 mph - N/A Rain Light Rain Showers
9:00 PM 65 °F 59 °F 74% 29.49 in 6 mi WNW 6.7 mph - -   Partly Cloudy
9:00 PM 64.4 °F 60.8 °F 88% 29.47 in 6.2 mi South 4.6 mph - N/A Rain Light Rain Showers
9:30 PM 62.6 °F 60.8 °F 94% 29.50 in 6.2 mi SW 6.9 mph - N/A Rain Light Rain Showers
10:00 PM 62 °F 60 °F 93% 29.50 in 6 mi ESE 2.2 mph - - Rain , Thunderstorm Thunderstorms and Rain
10:00 PM 64.4 °F 59.0 °F 83% 29.50 in 6.2 mi South 9.2 mph - N/A   Mostly Cloudy
11:00 PM 62 °F 61 °F 94% 29.52 in - ESE 4.5 mph - -  
11:00 PM 64.4 °F 59.0 °F 83% 29.53 in 6.2 mi SW 4.6 mph - N/A   Mostly Cloudy